Meath Environmental Platform

Observations for Trim Market St

Time AQI Temp °C Hum % Pres Pa CO μg/m³ H₂S μg/m³ NO μg/m³ NO₂ μg/m³ O₃ μg/m³ SO₂ μg/m³ PM1 μg/m³ PM2.5 μg/m³ PM10 μg/m³
Tuesday 18 August 2026
16:16 2 24.6 46 65,226 0 0 1.5 9.26 65.44 0 0 2.11 2.32
16:15 2 24.7 46 65,207 0 0 1.74 9.94 67.77 0 0 2.1 2.31
16:11 2 24.8 46 65,157 0 0 2 13.36 62.13 0 0 2.09 2.3
16:03 2 25 46 65,238 0 0 1.87 10.53 78.05 0 0 2.64 2.9
16:02 2 25 46 65,246 0 0 1.89 20.26 61.27 0 0 2.11 2.32
16:01 2 25 46 65,256 0 0 1.57 10.16 72.41 0 0 2.11 2.91
16:00 2 25 46 65,272 0 0 1.67 10.12 70.06 0 0 2.63 2.89
15:59 2 25 46 65,293 0 0 1.78 10.71 84.95 0 0 2.12 2.33
15:57 2 25 45 65,348 0 0 1.82 10.62 79.03 0 0 2.13 2.89
15:56 2 25 45 65,331 0 0 1.79 10.65 69.7 0 0 2.13 2.34
15:53 2 25.1 45 65,337 0 0 1.4 10.59 78.84 0 0 2.13 2.35
15:52 2 25.1 45 65,348 0 0 1.27 9.02 68.67 0 0 2.66 2.92
15:51 2 25.1 45 65,364 0 0 1.22 9.94 69.48 0 0 2.14 2.36
15:47 2 25.3 45 65,345 0 0 1.56 10.48 64.86 0 2.14 5.27 6.75
15:45 2 25.3 45 65,404 0 0 1.82 10.53 63.43 0 3.56 6.84 8.3
15:41 2 25.4 45 65,404 0 0 1.25 10.27 72.26 0 0.71 3.19 3.51
15:37 2 25.4 45 65,475 0 0 1.63 9.31 62.7 0 0 2.16 2.37
15:33 2 25.5 45 65,479 0 0 1.68 7.88 44.26 0 0 2.16 2.38
15:32 2 25.5 45 65,439 0 0 1.65 8.28 64.34 0 0 2.68 2.87
15:31 2 25.5 45 65,456 0 0 1.66 10.39 64.04 0 0 2.15 2.37